STARLINK-4690, 53604

Orbit data source: Space-Track

STARLINK-4690, 53604 is a payload satellite owned by SpaceX/Seattle (US) in LEO that was launched on Sun, 28 Aug 2022 UTC via an FALCON 9 launch vehicle from the Air Force Eastern Test Range (AFETR). Payload-class satellites include a variety of spacecraft equipped with specific instruments for various scientific and technological missions. These include communications satellites like Starlink; space stations such as the ISS; scientific satellites like the Hubble; Earth observation satellites from companies like Planet Labs, Umbra, and HawkEye 360; GPS; miniature CubeSats for education and research; and military/defense satellites.

Loading next visibility...
Identifier
53604, 2022-104S
Orbit
LEO
Country
Flag of USUS
Related business
Manufacturer
SpaceX/Seattle
Mission
Operational Commercial Communications
Bus & Motor
STARLINK, Unknown motor
Mass
300 kg wet, ~290 kg dry
Launch date (UTC)
2022-08-28 (3 years ago)
Launch vehicle
FALCON 9
Launch site
Air Force Eastern Test Range (AFETR)
Object type
Payload
Rocket body
Debris
Shape & HBR
Box + 1 Pan, 10.1 m
Radar Cross Section
13.562 m², Large (>1 m²)

Expand to show TLE details & history
Last TLE update: 1 day ago

TLE from 1 day ago
0 STARLINK-4690
1 53604U 22104S   26036.34167476  .00000712  00000-0  62812-4 0  9995
2 53604  53.2186  24.1939 0001367  92.8125 267.3023 15.08841170190803
Epoch: 2026-02-05T08:12Z
TLE epoch observation values (Epoch: 2026-02-05T08:12:00.699Z)
Latitude
-0.00006°
Longitude
125.69565°
Altitude
540.682 km
Speed
7.593 km/s
True Right ascension
01h 36m 46s
True Declination
0° 00' 00"
Sunlit
Object was in daylight at epoch
Visualization orbit readout
Latitude
Unknown
Longitude
Unknown
Altitude
Unknown
Speed
Unknown
Apparent Right ascension
Unknown
Apparent Declination
Unknown
Sunlit
N/A
Visualization observer readout
Local Sidereal Time
15:50:26
Azimuth
Unknown
Elevation
Unknown
Doppler factor
Unknown
Orbital elements
Apogee altitude
540.93 km
Perigee altitude
539.039 km
Semi-major axis
6,918.122 km
Eccentricity
0.00014
Inclination
53.2186°
RAAN
24.1939°
Arg. of periapsis
92.8125°
True anomaly
267.28665°
Mean anomaly
267.3023°
Eccentric anomaly
267.29448°
Mean motion
3.77191 °/min
Orbital period
95.44 mins
BSTAR
0.000062812
Loading maneuver chart data...
Computing Atmospheric mass density...

Documentation

Showing up to 5 results
|